User: anonymous   Login
Location: ???????
(60.4260°N, 46.9069°E)
Time: 13:56:44
(UTC+00:00)
Language:

Cosmos 405 Rocket - Orbit

View from above orbital plane
View from above orbital plane
View from above satellite
View from above satellite

Ground track
Ground track

The orbit data is extracted from the following two-line orbital elements,

1  5118U 71028B   20191.80040624 +.00000640 +00000-0 +32209-4 0  9990
2  5118 081.2570 310.6471 0047873 127.3346 233.2260 15.14613666673202
Epoch (UTC): 09 July 2020 19:12:35
Eccentricity: 0.0047873
inclination: 81.2570°
perigee height: 489 km
apogee height: 555 km
right ascension of ascending node: 310.6471°
argument of perigee: 127.3346°
revolutions per day: 15.14613666
mean anomaly at epoch: 233.2260°
orbit number at epoch: 67320

The dashed part of the orbit path shows where the satellite is in the earth's shadow,  

DLR